#timestamp,LO_Frequency,Hit,StdDev 
1620100815.8,286047003.4,Y
1620100835.7,286047001.4,P
1620100855.5,286047004.3,P
1620100875.4,286047001.5,N
1620100895.2,286047001.9,N
1620100915.0,286047002.6,N
1620100915.9,286047002.6,N
1620100935.8,286047001.7,N
1620100955.6,286047004.3,Y
1620100975.5,286047001.1,P
1620100995.3,286046999.2,N
1620101015.1,286046998.6,N
1620101035.9,286046998.2,N
1620101055.7,286046998.8,N
1620101075.5,286046998.3,N
1620101095.4,286046998.8,N
1620101115.2,286047011.9,Y
1620101135.1,286046998.9,P
1620101136.0,286046998.9,P
1620101155.8,286046998.9,P
1620101175.6,286046998.4,Y
1620101195.5,286047000.9,P
1620101215.3,286047000.3,N
1620101235.2,286047000.2,N
1620101255.9,286047002.5,Y
1620101275.7,286047003.2,P
1620101295.6,286047003.4,N
1620101315.4,286047002.9,N
1620101335.2,286047005.2,Y
1620101355.1,286047002.6,P
1620101356.0,286047002.6,P
1620101375.8,286047002.1,P
1620101395.7,286047001.7,Y
1620101415.5,286047000.1,P
1620101435.3,286047001.1,N
1620101455.2,286047001.1,N
1620101475.0,286046998.8,N
1620101475.9,286046998.8,N
1620101495.8,286046999.3,N
1620101515.6,286046998.9,N
1620101535.4,286046999.1,N
1620101555.3,286046999.6,N
1620101575.1,286046998.9,N
1620101595.8,286046998.8,N
1620101615.7,286046997.1,N
1620101635.5,286046997.4,N
1620101655.4,286046997.8,N
1620101675.2,286046995.4,Y
1620101695.0,286046997.9,P
1620101695.9,286046997.9,P
1620101715.8,286046996.7,P
1620101735.6,286046997.2,Y
1620101755.5,286046998.6,P
1620101775.3,286047000.6,N
1620101795.1,286046999.7,N
1620101815.9,286047002.5,N
1620101835.7,286047002.7,N
1620101855.5,286047000.8,N
1620101875.4,286047000.8,N
1620101895.2,286047000.7,N
1620101915.1,286046998.5,N
1620101916.0,286046998.5,N
1620101935.8,286046998.4,N
1620101955.6,286046996.5,N
1620101975.5,286046997.0,N
1620101995.3,286046996.9,N
1620102015.2,286046998.9,N
1620102035.9,286047001.0,N
1620102055.7,286046999.9,N
1620102075.6,286047002.7,N
1620102095.4,286047000.9,N
1620102115.2,286046999.0,N
1620102135.1,286046998.9,N
1620102136.0,286046998.9,N
1620102155.8,286047000.8,N
1620102175.7,286047001.2,N
1620102195.5,286047005.5,Y
1620102215.3,286047003.2,P
1620102235.2,286047003.1,N
1620102255.0,286047006.0,P
1620102255.9,286047006.0,N
1620102275.8,286047007.2,Y
1620102295.6,286047003.6,P
1620102315.4,286047002.1,P
1620102335.3,286047000.0,N
1620102355.1,286047000.5,N
1620102375.8,286047000.7,N
1620102395.7,286047000.8,N
1620102415.5,286047001.2,N
1620102435.4,286046998.9,N
1620102455.2,286046998.5,N
1620102475.0,286046998.1,N
1620102475.9,286046998.1,N
1620102495.8,286046998.9,N
1620102515.6,286046999.6,N
1620102535.4,286046997.5,N
1620102555.3,286046995.0,N
1620102575.1,286046994.9,N
1620102595.9,286046995.3,N
1620102615.7,286046997.6,N
1620102635.5,286046995.4,N
1620102655.4,286046997.3,N
1620102675.2,286047004.3,N
1620102695.0,286047005.7,N
1620102695.9,286047005.7,N
1620102715.8,286047005.6,N
1620102735.6,286047005.3,N
1620102755.5,286047002.6,N
1620102775.3,286047002.7,N
1620102795.1,286047000.5,N
1620102815.9,286046998.3,N
1620102835.7,286046996.9,N
1620102855.5,286046996.8,N
1620102875.4,286046994.9,N
1620102895.2,286046995.3,N
1620102915.1,286046995.3,N
1620102916.0,286046995.3,N
1620102935.8,286046995.8,N
1620102955.6,286046995.5,N
1620102975.5,286046995.5,N
1620102995.3,286046995.6,N
1620103015.1,286046995.6,N
1620103035.9,286046995.2,N
1620103055.7,286046995.2,N
1620103075.6,286046995.3,N
1620103095.4,286046995.1,N
1620103115.2,286046995.8,N
1620103135.1,286046995.3,N
1620103136.0,286046995.3,N
1620103155.8,286046995.1,N
1620103175.7,286046995.3,N
1620103195.5,286046995.6,N
1620103215.3,286046996.0,N
1620103235.2,286046999.4,N
1620103255.0,286046998.2,N
1620103255.9,286046998.2,N
1620103275.7,286047007.4,N
1620103295.6,286047005.0,N
1620103315.4,286047003.1,N
1620103335.3,286046999.8,N
1620103355.1,286047000.6,N
1620103375.8,286046998.9,N
1620103395.7,286046999.3,N
1620103415.5,286046999.2,N
1620103435.4,286046999.1,N
1620103455.2,286046999.4,N
1620103475.0,286046999.5,N
1620103475.9,286046999.5,N
1620103495.8,286046999.5,N
1620103515.6,286047000.7,N
1620103535.4,286046998.2,N
1620103555.3,286046998.6,N
1620103575.1,286046998.1,N
1620103595.9,286047001.9,N
1620103615.7,286046999.9,N
1620103635.5,286046998.2,N
1620103655.4,286046998.9,N
1620103675.2,286046999.2,N
1620103695.0,286046997.3,N
1620103695.9,286046997.3,N
1620103715.8,286046996.9,N
1620103735.6,286046995.3,N
1620103755.5,286046994.9,N
1620103775.3,286046997.7,N
1620103795.1,286046996.8,N
1620103815.9,286046996.6,N
1620103835.7,286047002.6,N
1620103855.5,286047003.2,N
1620103875.4,286047003.7,N
1620103895.2,286047005.1,N
1620103915.1,286047004.8,N
1620103916.0,286047004.8,N
1620103935.8,286047003.8,N
1620103955.6,286047001.9,N
1620103975.5,286047001.6,N
1620103995.3,286047004.2,N
1620104015.1,286047003.8,N
1620104035.9,286047002.0,N
1620104055.7,286047001.7,N
1620104075.6,286047004.3,N
1620104095.4,286047001.3,N
1620104115.2,286047003.3,N
1620104135.1,286047007.5,N
1620104136.0,286047007.5,N
1620104155.8,286047006.8,N
1620104175.7,286047005.2,N
1620104195.5,286047005.7,N
1620104215.3,286047003.7,N
1620104235.2,286047002.0,N
1620104255.9,286047002.7,N
1620104275.7,286046999.9,N
1620104295.6,286046998.1,N
1620104315.4,286046997.0,N
1620104335.3,286046995.6,N
1620104355.1,286046993.7,N
1620104356.0,286046993.7,N
1620104375.8,286046995.9,N
1620104395.7,286046995.9,N
